カタログに戻る

STARLINK-1172

運用中通信VLEO
NORAD 45074·PAYLOAD·🇺🇸 United States

打ち上げ Jan 29, 2020 から Cape Canaveral Space Force Station

Loading…

次のパス (今後24時間)

TLE

最新Source: CelesTrak SupGP

元期: Sep 15, 2026, 01:36 UTC

1 45074C 20006AG  26258.06715278  .00051150  00000+0  10019-2 0  2589
2 45074  53.1492  86.5256 0002049 142.5650  20.9487 15.46768782    11

AllMySatでSTARLINK-1172をリアルタイム追跡

Download on the App Store